Hourly Data Report for March 30, 2021

OTTAWA INTL A
ONTARIO
Current Station Operator: NAVCAN

45°19'00.000" N
75°40'00.000" W
114.90 m
6106001
71628
YOW

Download Data

Hourly Data (March 2021)
Hourly Data Report for March 30, 2021
TIME
LST
Temp Definition
°C
Dew Point Definition
°C
Rel Hum Definition
%
Precip. Amount Definition
mm

Wind Dir Definition
10's deg

Wind Spd Definition
km/h
Visibility Definition
km
Stn Press Definition
kPa
Hmdx Definition


Wind Chill Definition


Weather Definition


00:00 -2.5 -8.1 66   17 8 24.1 100.85   -6 LegendNANA
01:00 -1.5 -6.5 69   17 7 24.1 100.88   -4 Clear
02:00 -2.0 -5.7 76   17 7 24.1 100.90   -5 LegendNANA
03:00 -1.1 -3.7 82   16 11 24.1 100.90   -5 LegendNANA
04:00 -1.2 -3.3 86   14 9 24.1 100.90   -4 Mostly Cloudy
05:00 -0.9 -3.5 83   15 10 24.1 100.87   -4 LegendNANA
06:00 -0.7 -4.0 78   13 10 24.1 100.88   -4 LegendNANA
07:00 1.1 -4.0 69   14 15 24.1 100.88     Mostly Cloudy
08:00 3.3 -4.0 59   17 17 24.1 100.81     LegendNANA
09:00 6.0 -3.5 51   16 17 24.1 100.73     LegendNANA
10:00 9.7 -3.3 40   17 21 24.1 100.61     Mostly Cloudy
11:00 12.2 -2.6 35   17 25 24.1 100.52     LegendNANA
12:00 13.6 -2.8 32   19 30 24.1 100.37     LegendNANA
13:00 15.1 -2.7 29   18 27 24.1 100.28     Mostly Cloudy
14:00 16.1 -2.8 27   18 32 24.1 100.14     LegendNANA
15:00 16.6 -2.7 26   19 30 24.1 100.10     LegendNANA
16:00 17.0 -4.1 23   19 28 24.1 100.05     Mostly Cloudy
17:00 16.9 -2.0 27   18 19 24.1 99.95     LegendNANA
18:00 15.3 -0.2 34   17 14 24.1 99.89     LegendNANA
19:00 14.4 -0.3 36   17 11 24.1 99.86     Mostly Cloudy
20:00 14.1 -0.2 37   17 14 24.1 99.84     LegendNANA
21:00 13.7 0.0 39   17 18 24.1 99.80     LegendNANA
22:00 14.0 0.8 40   19 21 24.1 99.82     Mostly Cloudy
23:00 13.4 1.6 45   19 14 24.1 99.82     LegendNANA

Notes on Data Quality.

Legend

  • E = Estimated
  • M = Missing
  • NA = Not Available*
  • [empty] = Indicates an unobserved value
Date modified: